Cloud_Cover
0 0 10 14 19 13 18 16 19 8 20 21 33 35 99 100 42 4 0 0 3 5 7 5 5 1 2 5 89 4 5 3 5 5 2 4 1 0 0 4 5 26 52 5 23
0 5 0 4 5 4 10 17 17 18 13 14 27 43 90 100 0 0 0 0 0 5 52 66 15 25 1 1 11 66 7 4 3 2 2 5 2 0 0 0 0 5 5 5 90
0 2 0 1 0 0 8 13 13 23 26 8 26 34 22 78 0 0 0 0 2 67 100 5 40 6 1 1 7 84 19 5 5 5 15 8 0 0 0 0 0 4 5 5 56
0 0 7 0 0 0 0 5 14 23 30 8 21 21 0 0 0 0 0 0 2 19 35 42 4 5 5 13 6 93 71 35 41 14 2 2 0 0 0 0 0 0 5 5 6
5 2 0 0 1 8 7 0 25 33 31 12 1 8 2 0 0 0 0 0 0 5 5 5 5 4 10 31 17 13 5 5 0 0 0 0 0 0 0 0 0 0 5 5 5
20 5 0 0 4 8 0 9 44 28 23 8 0 32 0 0 0 0 0 0 0 1 3 5 5 5 4 1 7 54 24 6 0 0 0 0 0 0 0 0 0 0 0 5 5
5 2 4 0 0 12 7 46 48 27 22 7 0 1 0 0 0 0 0 0 0 0 1 2 5 0 4 0 3 0 4 4 0 0 0 0 0 0 5 1 0 0 0 4 5
5 5 6 0 15 30 18 4 6 22 3 0 1 0 0 0 0 0 0 0 0 0 0 1 5 0 4 0 4 3 5 5 5 1 2 1 1 1 43 50 13 0 0 0 5
6 24 2 0 29 28 3 0 0 0 0 0 1 0 0 0 0 0 0 0 0 0 0 0 4 0 4 0 2 31 8 5 5 5 5 5 5 5 4 15 72 0 0 3 0
28 0 0 20 49 17 0 0 0 0 0 0 0 0 0 0 0 0 0 0 0 0 0 0 0 0 0 1 14 50 100 75 5 13 11 4 3 2 1 1 4 0 0 4 5
25 0 0 16 44 7 2 0 0 0 0 0 0 0 0 0 0 0 0 0 0 0 0 0 0 0 0 5 1 7 100 100 79 14 4 5 2 30 13 5 0 0 0 9 62
3 3 19 12 8 3 0 0 0 0 0 0 0 0 0 0 0 0 0 0 0 0 0 0 0 0 0 4 0 0 30 100 100 45 7 17 7 5 9 5 2 0 1 70 36
0 14 98 100 2 0 0 0 0 0 0 0 0 0 0 0 0 0 0 0 0 0 0 0 0 0 0 0 5 4 4 97 100 100 100 79 56 83 6 3 18 4 2 32 92
18 64 100 99 0 0 2 0 0 1 0 0 0 0 0 0 0 0 0 0 0 0 0 0 0 0 0 0 5 5 13 70 100 100 100 100 100 100 98 86 38 41 30 98 100
88 100 100 100 19 1 2 2 0 0 0 1 0 0 0 0 0 0 0 0 0 0 0 0 0 0 0 2 5 6 5 6 100 100 100 100 45 100 90 6 12 67 100 100 95
100 100 99 64 92 85 25 9 11 8 5 5 0 0 0 0 0 0 0 0 0 0 0 0 0 0 0 2 56 5 7 5 10 100 100 99 16 10 56 15 70 47 10 26 8
100 94 92 0 31 99 100 28 7 8 3 0 0 0 0 0 0 0 0 0 0 0 0 0 0 0 0 0 5 5 5 5 0 0 1 1 0 2 97 100 92 88 84 28 6
87 1 3 0 0 0 1 1 2 0 0 0 0 0 0 0 0 0 0 0 0 0 0 0 0 0 0 0 3 4 5 5 0 0 0 0 0 0 14 100 100 100 100 9 2
0 0 0 0 0 0 0 0 0 0 0 0 0 0 0 0 0 0 0 0 0 0 0 0 0 0 0 0 0 0 0 1 0 0 0 0 0 0 0 0 2 35 17 1 0
0 0 0 0 0 0 0 0 0 0 0 0 0 0 0 0 0 0 0 0 0 0 0 0 0 0 0 0 0 0 3 5 5 0 0 0 0 0 0 0 0 0 0 0 0
0 0 0 0 0 0 0 0 0 0 0 0 0 0 0 0 0 0 0 0 0 0 0 0 0 0 0 0 0 0 0 0 0 0 0 0 0 0 0 0 0 0 0 0 0
0 0 0 0 0 0 0 0 0 0 0 0 0 0 0 0 0 0 0 0 0 0 0 0 0 0 0 0 0 0 0 0 0 0 0 0 0 0 0 0 0 5 0 0 0
0 0 0 0 2 0 0 0 0 0 0 0 0 0 0 0 0 0 0 0 0 0 0 0 0 0 0 0 0 0 0 4 5 2 0 0 0 0 0 0 0 18 0 0 0
5 0 0 0 0 3 2 0 0 0 0 0 0 0 0 0 0 0 0 0 0 0 0 0 0 0 0 0 0 0 0 0 2 4 0 0 0 0 0 0 0 2 0 0 0
6 16 4 5 3 3 5 5 1 0 0 0 0 0 0 0 0 0 0 0 0 0 0 0 0 0 0 0 0 0 0 0 0 0 0 0 0 0 0 0 0 0 0 0 0
100 67 36 11 5 5 5 5 5 5 5 3 2 0 0 0 0 0 0 0 0 0 0 0 0 0 0 0 0 0 0 0 0 0 0 0 0 0 0 0 0 0 0 0 0
91 92 100 100 100 96 99 88 5 5 48 45 5 0 0 0 0 0 0 0 0 0 0 0 0 0 0 0 0 0 0 0 0 0 0 0 0 0 0 0 0 0 0 0 0